GW2323 Weather Reports


time (UTC)temp
C
wind
direction
speed
KPH
gust
KPH
rain 1hr
cm
rain 24hr
cm
rain mn
cm
humidity
%
barometer
mb
20260508054534 12 276 1.6 8.0 0.00 0.00 0.00 62 1031.3
20260508054030 12 278 1.6 9.7 0.00 0.00 0.00 61 1031.3
20260508053530 12 271 3.2 8.0 0.00 0.00 0.00 61 1031.3
20260508053031 12 272 3.2 8.0 0.00 0.00 0.00 60 1031.3
20260508052531 12 281 1.6 8.0 0.00 0.00 0.00 60 1031.3
20260508052028 12 264 1.6 9.7 0.00 0.00 0.00 59 1031.3
20260508051534 12 291 1.6 9.7 0.00 0.00 0.00 59 1031.3
20260508051028 12 226 1.6 9.7 0.00 0.00 0.00 59 1031.3
20260508050528 12 283 3.2 8.0 0.00 0.00 0.00 60 1031.3
20260508050031 12 236 1.6 9.7 0.00 0.00 0.00 59 1031.3
20260508045526 12 265 3.2 9.7 0.00 0.00 0.00 60 1031.3
20260508045026 12 293 1.6 9.7 0.00 0.00 0.00 60 1031.3
20260508044526 12 295 3.2 6.4 0.00 0.00 0.00 60 1031.3
20260508044027 12 280 3.2 9.7 0.00 0.00 0.00 60 1031.3
20260508043525 12 281 1.6 9.7 0.00 0.00 0.00 60 1031.3
20260508043026 12 296 3.2 8.0 0.00 0.00 0.00 60 1031.3
20260508042526 12 290 1.6 9.7 0.00 0.00 0.00 60 1031.3
20260508042025 12 278 3.2 9.7 0.00 0.00 0.00 60 1031.3
20260508041526 12 288 3.2 9.7 0.00 0.00 0.00 60 1031.3
20260508041025 12 293 1.6 8.0 0.00 0.00 0.00 60 1031.3
20260508040526 12 269 1.6 8.0 0.00 0.00 0.00 60 1031.3
20260508040025 12 250 1.6 8.0 0.00 0.00 0.00 60 1031.3
20260508035524 13 216 0.0 4.8 0.00 0.00 0.00 59 1031.3
20260508035030 13 274 0.0 6.4 0.00 0.00 0.00 59 1031.3
20260508034530 12 281 1.6 8.0 0.00 0.00 0.00 59 1031.3
20260508034024 12 281 1.6 8.0 0.00 0.00 0.00 60 1031.3
20260508033524 12 278 1.6 6.4 0.00 0.00 0.00 60 1031.3
20260508033026 12 272 0.0 3.2 0.00 0.00 0.00 61 1031.3
20260508032524 12 272 0.0 0.0 0.00 0.00 0.00 60 1031.3
20260508032024 13 272 0.0 3.2 0.00 0.00 0.00 60 1031.3
20260508031526 13 272 0.0 3.2 0.00 0.00 0.00 57 1031.3
20260508031023 13 272 0.0 0.0 0.00 0.00 0.00 57 1031.3
20260508030524 13 272 0.0 0.0 0.00 0.00 0.00 57 1031.3
20260508030024 13 272 0.0 0.0 0.00 0.00 0.00 56 1031.3
20260508025522 13 272 0.0 3.2 0.00 0.00 0.00 56 1031.3
20260508025022 13 272 0.0 3.2 0.00 0.00 0.00 55 1031.3
20260508024526 14 248 0.0 6.4 0.00 0.00 0.00 54 1031.3
20260508024022 14 274 0.0 6.4 0.00 0.00 0.00 54 1031.3
20260508023523 14 257 0.0 4.8 0.00 0.00 0.00 54 1031.3
20260508023022 14 281 0.0 4.8 0.00 0.00 0.00 53 1031.3
20260508022523 15 242 0.0 3.2 0.00 0.00 0.00 52 1031.3
20260508022022 15 239 0.0 6.4 0.00 0.00 0.00 51 1031.3
20260508021524 15 275 1.6 6.4 0.00 0.00 0.00 51 1031.3
20260508021024 15 283 1.6 6.4 0.00 0.00 0.00 51 1031.3
20260508020521 15 263 0.0 6.4 0.00 0.00 0.00 51 1031.3
20260508020031 15 274 1.6 4.8 0.00 0.00 0.00 50 1031.3
20260508015521 15 283 1.6 4.8 0.00 0.00 0.00 49 1031.3
20260508015021 15 293 0.0 8.0 0.00 0.00 0.00 49 1031.3
20260508014521 15 259 0.0 4.8 0.00 0.00 0.00 49 1031.3
20260508014021 15 274 1.6 6.4 0.00 0.00 0.00 49 1031.3
20260508013521 16 270 1.6 6.4 0.00 0.00 0.00 48 1031.3
20260508013020 16 285 1.6 6.4 0.00 0.00 0.00 48 1031.3
20260508012520 16 286 1.6 6.4 0.00 0.00 0.00 48 1031.3
20260508012022 16 295 1.6 8.0 0.00 0.00 0.00 47 1031.3
20260508011521 16 281 3.2 6.4 0.00 0.00 0.00 46 1031.3
20260508011020 16 290 3.2 11.3 0.00 0.00 0.00 46 1031.3
20260508010520 16 265 3.2 11.3 0.00 0.00 0.00 45 1031.3
20260508010021 16 287 3.2 12.9 0.00 0.00 0.00 44 1031.3
20260508005519 16 281 3.2 12.9 0.00 0.00 0.00 44 1031.3
20260508005020 17 278 3.2 11.3 0.00 0.00 0.00 44 1031.3
20260508004519 17 285 3.2 11.3 0.00 0.00 0.00 44 1031.3
20260508004021 17 344 4.8 11.3 0.00 0.00 0.00 43 1031.3
20260508003519 17 285 4.8 9.7 0.00 0.00 0.00 44 1031.3
20260508003021 17 290 1.6 11.3 0.00 0.00 0.00 43 1031.3
20260508002519 17 269 4.8 11.3 0.00 0.00 0.00 42 1031.3
20260508002019 17 288 4.8 12.9 0.00 0.00 0.00 42 1031.3
20260508001518 18 297 3.2 17.7 0.00 0.00 0.00 42 1031.3
20260508001019 18 335 8.0 17.7 0.00 0.00 0.00 40 1031.3
20260508000521 18 291 4.8 16.1 0.00 0.00 0.00 41 1031.3
20260508000018 18 302 8.0 17.7 0.00 0.00 0.00 41 1031.3
20260507235522 18 326 6.4 16.1 0.00 0.00 0.00 40 1031.3
20260507235018 18 325 6.4 14.5 0.00 0.00 0.00 40 1031.3
20260507234517 18 308 6.4 17.7 0.00 0.00 0.00 40 1031.3
20260507234019 18 287 8.0 22.5 0.00 0.00 0.00 39 1031.3
20260507233517 18 289 9.7 22.5 0.00 0.00 0.00 39 1031.3
20260507233018 18 317 11.3 19.3 0.00 0.00 0.00 38 1031.3
20260507232520 18 314 4.8 22.5 0.00 0.00 0.00 38 1031.3
20260507232017 18 293 9.7 22.5 0.00 0.00 0.00 38 1031.3
20260507231517 18 304 1.6 14.5 0.00 0.00 0.00 40 1031.3
20260507231017 18 263 4.8 22.5 0.00 0.00 0.00 38 1031.3
20260507230516 18 283 9.7 22.5 0.00 0.00 0.00 38 1031.3
20260507230017 18 328 6.4 12.9 0.00 0.00 0.00 40 1031.3
20260507225516 18 319 3.2 22.5 0.00 0.00 0.00 39 1031.3
20260507225016 18 328 9.7 22.5 0.00 0.00 0.00 37 1031.3
20260507224522 18 322 6.4 16.1 0.00 0.00 0.00 38 1031.3
20260507224015 19 349 8.0 16.1 0.00 0.00 0.00 37 1031.3
20260507223516 18 299 6.4 17.7 0.00 0.00 0.00 37 1031.3
20260507223016 18 9 9.7 17.7 0.00 0.00 0.00 37 1031.3
20260507222515 18 352 8.0 16.1 0.00 0.00 0.00 39 1031.3
20260507222015 19 356 3.2 16.1 0.00 0.00 0.00 39 1031.3
20260507221515 18 356 6.4 19.3 0.00 0.00 0.00 37 1031.3
20260507221015 18 353 11.3 24.1 0.00 0.00 0.00 36 1031.3
20260507220514 18 352 9.7 24.1 0.00 0.00 0.00 38 1031.3
20260507220014 18 359 12.9 24.1 0.00 0.00 0.00 37 1031.3
20260507215517 18 319 9.7 24.1 0.00 0.00 0.00 37 1031.3
20260507215016 18 281 8.0 17.7 0.00 0.00 0.00 36 1031.3
20260507214521 18 290 4.8 16.1 0.00 0.00 0.00 36 1031.3
20260507214013 18 293 8.0 17.7 0.00 0.00 0.00 38 1031.3
20260507213515 18 359 4.8 14.5 0.00 0.00 0.00 36 1031.3
20260507213017 18 1 3.2 20.9 0.00 0.00 0.00 40 1031.3
20260507212513 18 317 8.0 20.9 0.00 0.00 0.00 38 1031.3
20260507212013 18 321 11.3 20.9 0.00 0.00 0.00 36 1031.3
20260507211514 18 345 9.7 14.5 0.00 0.00 0.00 37 1031.3
20260507211012 18 308 4.8 12.9 0.00 0.00 0.00 38 1031.3
20260507210521 18 344 4.8 20.9 0.00 0.00 0.00 38 1031.3
20260507210012 18 285 4.8 20.9 0.00 0.00 0.00 37 1031.3
20260507205512 18 49 9.7 20.9 0.00 0.00 0.00 35 1031.3
20260507205012 18 346 8.0 20.9 0.00 0.00 0.00 36 1031.3
20260507204511 18 319 4.8 14.5 0.00 0.00 0.00 38 1031.3
20260507204012 18 72 3.2 17.7 0.00 0.00 0.00 36 1031.3
20260507203512 18 337 9.7 17.7 0.00 0.00 0.00 37 1031.3
20260507203014 18 334 6.4 17.7 0.00 0.00 0.00 37 1031.3
20260507202510 18 269 11.3 17.7 0.00 0.00 0.00 36 1031.3
20260507202010 18 267 3.2 9.7 0.00 0.00 0.00 36 1031.3
20260507201511 18 320 3.2 16.1 0.00 0.00 0.00 37 1031.3
20260507201009 18 43 1.6 17.7 0.00 0.00 0.00 47 1031.3
20260507200509 17 264 6.4 24.1 0.00 0.00 0.00 39 1031.3
20260507200011 17 323 11.3 30.6 0.00 0.00 0.00 37 1031.3
20260507195508 17 293 12.9 30.6 0.00 0.00 0.00 37 1031.3
20260507195008 17 273 6.4 24.1 0.00 0.00 0.00 37 1031.3
20260507194508 17 311 8.0 29.0 0.00 0.00 0.00 38 1031.3
20260507194007 17 307 12.9 29.0 0.00 0.00 0.00 36 1031.3
20260507193511 17 29 4.8 27.4 0.00 0.00 0.00 39 1031.3
20260507193007 17 330 12.9 29.0 0.00 0.00 0.00 36 1031.3
20260507192507 18 13 9.7 16.1 0.00 0.00 0.00 38 1031.3
20260507192007 17 243 4.8 16.1 0.00 0.00 0.00 39 1031.3
20260507191506 17 323 8.0 22.5 0.00 0.00 0.00 37 1031.3
20260507191006 17 305 8.0 29.0 0.00 0.00 0.00 39 1031.3
20260507190507 17 312 17.7 29.0 0.00 0.00 0.00 37 1031.3
20260507190005 17 300 4.8 16.1 0.00 0.00 0.00 37 1031.3
20260507185504 17 360 3.2 22.5 0.00 0.00 0.00 39 1031.3
20260507185004 17 307 9.7 22.5 0.00 0.00 0.00 37 1031.3
20260507184504 17 322 9.7 24.1 0.00 0.00 0.00 35 1031.3
20260507184003 17 288 3.2 22.5 0.00 0.00 0.00 43 1031.3
20260507183502 17 305 6.4 22.5 0.00 0.00 0.00 41 1031.3
20260507183002 17 349 11.3 20.9 0.00 0.00 0.00 38 1031.3
20260507182502 16 7 6.4 16.1 0.00 0.00 0.00 37 1031.3
20260507182002 17 344 6.4 16.1 0.00 0.00 0.00 38 1031.3
20260507181505 16 30 3.2 16.1 0.00 0.00 0.00 38 1031.3
20260507181002 17 6 8.0 17.7 0.00 0.00 0.00 36 1031.3
20260507180501 17 283 11.3 20.9 0.00 0.00 0.00 38 1031.3
20260507180002 16 300 8.0 20.9 0.00 0.00 0.00 40 1031.3
20260507175559 16 283 1.6 16.1 0.00 0.00 0.00 41 1031.3
20260507175059 16 309 6.4 19.3 0.00 0.00 0.00 37 1031.3
20260507174607 16 302 9.7 19.3 0.00 0.00 0.00 38 1031.3
20260507174059 16 263 6.4 20.9 0.00 0.00 0.00 40 1031.3
20260507173601 16 271 8.0 20.9 0.00 0.00 0.00 37 1031.3
20260507173059 16 323 4.8 17.7 0.00 0.00 0.00 38 1031.3
20260507172600 16 322 9.7 17.7 0.00 0.00 0.00 39 1031.3
20260507172056 16 276 4.8 14.5 0.00 0.00 0.00 40 1031.3
20260507171604 16 336 4.8 14.5 0.00 0.00 0.00 41 1031.3
20260507171055 16 328 4.8 17.7 0.00 0.00 0.00 38 1031.3
20260507170556 16 292 6.4 19.3 0.00 0.00 0.00 37 1031.3
20260507170055 16 283 6.4 22.5 0.00 0.00 0.00 38 1031.3
20260507165554 16 300 8.0 22.5 0.00 0.00 0.00 38 1031.3
20260507165056 15 302 4.8 12.9 0.00 0.00 0.00 42 1031.3
20260507164552 15 322 4.8 12.9 0.00 0.00 0.00 38 1031.3
20260507164052 15 325 4.8 19.3 0.00 0.00 0.00 38 1031.3
20260507163552 15 290 11.3 19.3 0.00 0.00 0.00 37 1031.3
20260507163052 15 335 4.8 14.5 0.00 0.00 0.00 41 1031.3
20260507162552 15 323 3.2 12.9 0.00 0.00 0.00 43 1031.3
20260507162051 15 342 4.8 12.9 0.00 0.00 0.00 40 1031.3
20260507161553 15 57 4.8 12.9 0.00 0.00 0.00 37 1031.3
20260507161049 15 2 4.8 9.7 0.00 0.00 0.00 40 1031.3
20260507160548 15 348 0.0 16.1 0.00 0.00 0.00 47 1031.3
20260507160049 14 332 1.6 19.3 0.00 0.00 0.00 44 1031.3
20260507155546 14 336 8.0 19.3 0.00 0.00 0.00 44 1031.3
20260507155046 14 330 6.4 16.1 0.00 0.00 0.00 43 1031.3
20260507154546 14 340 4.8 16.1 0.00 0.00 0.00 43 1031.3
20260507154044 14 315 1.6 16.1 0.00 0.00 0.00 47 1031.3
20260507153544 14 345 1.6 14.5 0.00 0.00 0.00 51 1031.3
20260507153043 13 290 6.4 14.5 0.00 0.00 0.00 50 1031.3
20260507152542 13 245 4.8 12.9 0.00 0.00 0.00 49 1031.3
20260507152043 13 304 4.8 14.5 0.00 0.00 0.00 50 1031.3
20260507151543 13 291 3.2 14.5 0.00 0.00 0.00 51 1031.3
20260507151041 13 298 3.2 12.9 0.00 0.00 0.00 47 1031.3
20260507150540 13 289 1.6 11.3 0.00 0.00 0.00 53 1031.3
20260507150040 13 301 1.6 16.1 0.00 0.00 0.00 54 1031.3
20260507145538 13 307 9.7 16.1 0.00 0.00 0.00 48 1031.3
20260507145038 13 280 1.6 8.0 0.00 0.00 0.00 53 1031.3
20260507144557 12 292 3.2 8.0 0.00 0.00 0.00 53 1031.3
20260507144036 12 321 1.6 6.4 0.00 0.00 0.00 57 1031.3
20260507143535 12 290 0.0 9.7 0.00 0.00 0.00 58 1031.3
20260507143033 12 321 0.0 11.3 0.00 0.00 0.00 59 1031.3
20260507142533 11 291 1.6 9.7 0.00 0.00 0.00 63 1031.3
20260507142034 11 309 3.2 8.0 0.00 0.00 0.00 64 1031.3
20260507141529 11 323 1.6 8.0 0.00 0.00 0.00 73 1031.3
20260507141028 10 311 0.0 4.8 0.00 0.00 0.00 74 1031.3
20260507140527 10 317 1.6 4.8 0.00 0.00 0.00 75 1031.3
20260507140024 10 308 1.6 4.8 0.00 0.00 0.00 77 1031.3
20260507135524 9 251 0.0 4.8 0.00 0.00 0.00 81 1031.3
20260507135021 8 287 0.0 3.2 0.00 0.00 0.00 83 1031.3
20260507134520 8 322 0.0 0.0 0.00 0.00 0.00 84 1031.3
20260507134019 8 36 0.0 0.0 0.00 0.00 0.00 85 1031.3
20260507133519 7 36 0.0 0.0 0.00 0.00 0.00 86 1031.3
20260507133018 7 18 0.0 0.0 0.00 0.00 0.00 86 1031.3
20260507132518 7 18 0.0 0.0 0.00 0.00 0.00 86 1031.3
20260507132017 7 18 0.0 0.0 0.00 0.00 0.00 86 1031.3
20260507131518 7 293 0.0 0.0 0.00 0.00 0.00 86 1031.3
20260507131018 7 293 0.0 0.0 0.00 0.00 0.00 87 1031.3
20260507130518 6 293 0.0 0.0 0.00 0.00 0.00 87 1031.3
20260507130017 6 285 0.0 0.0 0.00 0.00 0.00 86 1031.3
20260507125516 6 285 0.0 0.0 0.00 0.00 0.00 86 1031.3
20260507125016 6 285 0.0 0.0 0.00 0.00 0.00 86 1031.3
20260507124516 6 285 0.0 0.0 0.00 0.00 0.00 87 1031.3
20260507124022 5 285 0.0 0.0 0.00 0.00 0.00 87 1031.3
20260507123516 5 285 0.0 0.0 0.00 0.00 0.00 88 1031.3
20260507123016 5 299 0.0 0.0 0.00 0.00 0.00 88 1031.3
20260507122515 5 280 0.0 0.0 0.00 0.00 0.00 90 1031.3
20260507122016 5 280 0.0 0.0 0.00 0.00 0.00 90 1031.3
20260507121515 4 321 0.0 0.0 0.00 0.00 0.00 92 1031.3
20260507121015 4 321 0.0 0.0 0.00 0.00 0.00 92 1031.3
20260507120515 4 321 0.0 0.0 0.00 0.00 0.00 92 1031.3
20260507120015 3 321 0.0 0.0 0.00 0.00 0.00 93 1031.3
20260507115514 3 321 0.0 0.0 0.00 0.00 0.00 93 1031.3
20260507115016 3 321 0.0 0.0 0.00 0.00 0.00 93 1031.3
20260507114514 3 321 0.0 0.0 0.00 0.00 0.00 93 1031.3
20260507114014 3 321 0.0 0.0 0.00 0.00 0.00 93 1031.3
20260507113513 3 321 0.0 0.0 0.00 0.00 0.00 93 1031.3
20260507113014 2 321 0.0 0.0 0.00 0.00 0.00 93 1031.3
20260507112516 2 321 0.0 0.0 0.00 0.00 0.00 93 1031.3
20260507112014 2 321 0.0 0.0 0.00 0.00 0.00 93 1031.3
20260507111517 2 321 0.0 0.0 0.00 0.00 0.00 93 1031.3
20260507111014 2 321 0.0 0.0 0.00 0.00 0.00 93 1031.3
20260507110517 2 321 0.0 0.0 0.00 0.00 0.00 93 1031.3
20260507110013 2 321 0.0 0.0 0.00 0.00 0.00 93 1031.3
20260507105512 2 321 0.0 0.0 0.00 0.00 0.00 93 1031.3
20260507105011 2 321 0.0 0.0 0.00 0.00 0.00 93 1031.3
20260507104511 2 321 0.0 0.0 0.00 0.00 0.00 93 1031.3
20260507104012 3 321 0.0 0.0 0.00 0.00 0.00 93 1031.3
20260507103513 3 321 0.0 0.0 0.00 0.00 0.00 93 1031.3
20260507103010 3 321 0.0 0.0 0.00 0.00 0.00 93 1031.3
20260507102510 3 321 0.0 0.0 0.00 0.00 0.00 93 1031.3
20260507102010 3 321 0.0 0.0 0.00 0.00 0.00 93 1031.3
20260507101510 3 321 0.0 0.0 0.00 0.00 0.00 93 1031.3
20260507101010 3 321 0.0 0.0 0.00 0.00 0.00 93 1031.3
20260507100510 3 321 0.0 0.0 0.00 0.00 0.00 93 1031.3
20260507100016 3 321 0.0 0.0 0.00 0.00 0.00 93 1031.3
20260507095511 3 321 0.0 0.0 0.00 0.00 0.00 92 1031.3
20260507095011 3 321 0.0 0.0 0.00 0.00 0.00 92 1031.3
20260507094509 3 321 0.0 0.0 0.00 0.00 0.00 92 1031.3
20260507094010 3 321 0.0 0.0 0.00 0.00 0.00 92 1031.3
20260507093508 3 321 0.0 0.0 0.00 0.00 0.00 91 1031.3
20260507093008 3 321 0.0 0.0 0.00 0.00 0.00 91 1031.3
20260507092508 3 321 0.0 0.0 0.00 0.00 0.00 91 1031.3
20260507092010 3 321 0.0 0.0 0.00 0.00 0.00 90 1031.3
20260507091507 3 321 0.0 0.0 0.00 0.00 0.00 90 1031.3
20260507091009 3 321 0.0 0.0 0.00 0.00 0.00 89 1031.3
20260507090506 3 321 0.0 0.0 0.00 0.00 0.00 88 1031.3
20260507090010 3 321 0.0 0.0 0.00 0.00 0.00 88 1031.3
20260507085503 3 321 0.0 0.0 0.00 0.00 0.00 87 1031.3
20260507085004 3 321 0.0 0.0 0.00 0.00 0.00 87 1031.3
20260507084502 3 321 0.0 0.0 0.00 0.00 0.00 86 1031.3
20260507084002 3 321 0.0 0.0 0.00 0.00 0.00 86 1031.3
20260507083502 3 321 0.0 0.0 0.00 0.00 0.00 86 1031.3
20260507083002 4 321 0.0 0.0 0.00 0.00 0.00 87 1031.3
20260507082501 4 321 0.0 0.0 0.00 0.00 0.00 87 1031.3
20260507082001 4 321 0.0 0.0 0.00 0.00 0.00 87 1031.3
20260507081600 4 321 0.0 0.0 0.00 0.00 0.00 88 1031.3
20260507081100 4 321 0.0 0.0 0.00 0.00 0.00 87 1031.3
20260507080600 4 321 0.0 0.0 0.00 0.00 0.00 87 1031.3
20260507075558 4 321 0.0 0.0 0.00 0.00 0.00 86 1031.3
20260507075058 4 321 0.0 0.0 0.00 0.00 0.00 86 1031.3
20260507074558 4 358 0.0 0.0 0.00 0.00 0.00 86 1031.3
20260507074057 4 358 0.0 0.0 0.00 0.00 0.00 86 1031.3
20260507073557 5 358 0.0 0.0 0.00 0.00 0.00 86 1031.3
20260507073102 5 358 0.0 0.0 0.00 0.00 0.00 86 1031.3
20260507072557 5 358 0.0 0.0 0.00 0.00 0.00 87 1031.3
20260507072056 5 358 0.0 0.0 0.00 0.00 0.00 89 1031.3
20260507071558 5 358 0.0 0.0 0.00 0.00 0.00 89 1031.3
20260507071055 5 358 0.0 0.0 0.00 0.00 0.00 89 1031.3
20260507070555 5 358 0.0 0.0 0.00 0.00 0.00 89 1031.3
20260507070059 5 358 0.0 0.0 0.00 0.00 0.00 88 1031.3
20260507065553 5 358 0.0 0.0 0.00 0.00 0.00 88 1031.3
20260507065053 5 358 0.0 0.0 0.00 0.00 0.00 88 1031.3
20260507064553 5 358 0.0 0.0 0.00 0.00 0.00 86 1031.3
20260507064052 5 358 0.0 0.0 0.00 0.00 0.00 85 1031.3
20260507063551 5 358 0.0 0.0 0.00 0.00 0.00 84 1031.3
20260507063053 5 358 0.0 0.0 0.00 0.00 0.00 83 1031.3
20260507062549 5 358 0.0 0.0 0.00 0.00 0.00 83 1031.3
20260507062049 6 358 0.0 0.0 0.00 0.00 0.00 82 1031.3
20260507061548 6 358 0.0 3.2 0.00 0.00 0.00 81 1031.3
20260507061046 6 358 0.0 3.2 0.00 0.00 0.00 80 1031.3
20260507060546 6 358 0.0 3.2 0.00 0.00 0.00 79 1031.3
20260507060052 6 358 0.0 3.2 0.00 0.00 0.00 79 1031.3
20260507055545 6 358 0.0 3.2 0.00 0.00 0.00 77 1031.3
20260507055044 6 332 0.0 0.0 0.00 0.00 0.00 77 1031.3